Year,Month,Day,Hour,Minute,Value (Times are PST for temperature in C)
2021,06,30,00,00,19.70
2021,06,30,00,01,19.70
2021,06,30,00,02,19.70
2021,06,30,00,03,19.80
2021,06,30,00,04,19.80
2021,06,30,00,05,19.80
2021,06,30,00,06,19.80
2021,06,30,00,07,19.80
2021,06,30,00,08,19.80
2021,06,30,00,09,19.80
2021,06,30,00,10,19.80
2021,06,30,00,11,19.80
2021,06,30,00,12,19.80
2021,06,30,00,13,19.80
2021,06,30,00,14,19.80
2021,06,30,00,15,19.80
2021,06,30,00,16,19.90
2021,06,30,00,17,19.90
2021,06,30,00,18,19.90
2021,06,30,00,19,19.90
2021,06,30,00,20,19.90
2021,06,30,00,21,19.90
2021,06,30,00,22,20.00
2021,06,30,00,23,20.00
2021,06,30,00,24,20.10
2021,06,30,00,25,20.10
2021,06,30,00,26,20.10
2021,06,30,00,27,20.10
2021,06,30,00,28,20.10
2021,06,30,00,29,20.10
2021,06,30,00,30,20.10
2021,06,30,00,31,20.10
2021,06,30,00,32,20.10
2021,06,30,00,33,20.00
2021,06,30,00,34,20.00
2021,06,30,00,35,20.00
2021,06,30,00,36,20.00
2021,06,30,00,37,20.00
2021,06,30,00,38,20.00
2021,06,30,00,39,20.00
2021,06,30,00,40,20.10
2021,06,30,00,41,20.10
2021,06,30,00,42,20.10
2021,06,30,00,43,20.10
2021,06,30,00,44,20.00
2021,06,30,00,45,20.00
2021,06,30,00,46,20.00
2021,06,30,00,47,20.10
2021,06,30,00,48,20.10
2021,06,30,00,49,20.10
2021,06,30,00,50,20.10
2021,06,30,00,51,20.10
2021,06,30,00,52,20.10
2021,06,30,00,53,20.10
2021,06,30,00,54,20.10
2021,06,30,00,55,20.10
2021,06,30,00,56,20.20
2021,06,30,00,57,20.20
2021,06,30,00,58,20.20
2021,06,30,00,59,20.20
2021,06,30,01,00,20.20
2021,06,30,01,01,20.20
2021,06,30,01,02,20.20
2021,06,30,01,03,20.20
2021,06,30,01,04,20.20
2021,06,30,01,05,20.20
2021,06,30,01,06,20.30
2021,06,30,01,07,20.30
2021,06,30,01,08,20.30
2021,06,30,01,09,20.30
2021,06,30,01,10,20.30
2021,06,30,01,11,20.30
2021,06,30,01,12,20.30
2021,06,30,01,13,20.30
2021,06,30,01,14,20.30
2021,06,30,01,15,20.30
2021,06,30,01,16,20.20
2021,06,30,01,17,20.20
2021,06,30,01,18,20.20
2021,06,30,01,19,20.20
2021,06,30,01,20,20.20
2021,06,30,01,21,20.10
2021,06,30,01,22,20.10
2021,06,30,01,23,20.10
2021,06,30,01,24,20.10
2021,06,30,01,25,20.10
2021,06,30,01,26,20.10
2021,06,30,01,27,20.10
2021,06,30,01,28,20.10
2021,06,30,01,29,20.10
2021,06,30,01,30,20.10
2021,06,30,01,31,20.10
2021,06,30,01,32,20.10
2021,06,30,01,33,20.10
2021,06,30,01,34,20.10
2021,06,30,01,35,20.10
2021,06,30,01,36,20.20
2021,06,30,01,37,20.20
2021,06,30,01,38,20.20
2021,06,30,01,39,20.20
2021,06,30,01,40,20.20
2021,06,30,01,41,20.20
2021,06,30,01,42,20.20
2021,06,30,01,43,20.20
2021,06,30,01,44,20.20
2021,06,30,01,45,20.20
2021,06,30,01,46,20.20
2021,06,30,01,47,20.20
2021,06,30,01,48,20.20
2021,06,30,01,49,20.20
2021,06,30,01,50,20.20
2021,06,30,01,51,20.10
2021,06,30,01,52,20.10
2021,06,30,01,53,20.10
2021,06,30,01,54,20.10
2021,06,30,01,55,20.10
2021,06,30,01,56,20.10
2021,06,30,01,57,20.10
2021,06,30,01,58,20.10
2021,06,30,01,59,20.10
2021,06,30,02,00,20.10
2021,06,30,02,01,20.10
2021,06,30,02,02,20.10
2021,06,30,02,03,20.10
2021,06,30,02,04,20.10
2021,06,30,02,05,20.10
2021,06,30,02,06,20.10
2021,06,30,02,07,20.10
2021,06,30,02,08,20.10
2021,06,30,02,09,20.10
2021,06,30,02,10,20.10
2021,06,30,02,11,20.10
2021,06,30,02,12,20.00
2021,06,30,02,13,20.00
2021,06,30,02,14,20.00
2021,06,30,02,15,20.10
2021,06,30,02,16,20.10
2021,06,30,02,17,20.10
2021,06,30,02,18,20.10
2021,06,30,02,19,20.10
2021,06,30,02,20,20.10
2021,06,30,02,21,20.10
2021,06,30,02,22,20.10
2021,06,30,02,23,20.10
2021,06,30,02,24,20.10
2021,06,30,02,25,20.00
2021,06,30,02,26,20.00
2021,06,30,02,27,20.00
2021,06,30,02,28,20.00
2021,06,30,02,29,20.00
2021,06,30,02,30,20.00
2021,06,30,02,31,19.90
2021,06,30,02,32,19.90
2021,06,30,02,33,19.90
2021,06,30,02,34,19.90
2021,06,30,02,35,19.90
2021,06,30,02,36,19.90
2021,06,30,02,37,19.90
2021,06,30,02,38,19.80
2021,06,30,02,39,19.80
2021,06,30,02,40,19.80
2021,06,30,02,41,19.80
2021,06,30,02,42,19.70
2021,06,30,02,43,19.70
2021,06,30,02,44,19.70
2021,06,30,02,45,19.60
2021,06,30,02,46,19.60
2021,06,30,02,47,19.50
2021,06,30,02,48,19.50
2021,06,30,02,49,19.40
2021,06,30,02,50,19.40
2021,06,30,02,51,19.30
2021,06,30,02,52,19.30
2021,06,30,02,53,19.20
2021,06,30,02,54,19.20
2021,06,30,02,55,19.10
2021,06,30,02,56,19.10
2021,06,30,02,57,19.10
2021,06,30,02,58,19.00
2021,06,30,02,59,18.90
2021,06,30,03,00,18.90
2021,06,30,03,01,18.80
2021,06,30,03,02,18.70
2021,06,30,03,03,18.70
2021,06,30,03,04,18.70
2021,06,30,03,05,18.60
2021,06,30,03,06,18.60
2021,06,30,03,07,18.60
2021,06,30,03,08,18.50
2021,06,30,03,09,18.50
2021,06,30,03,10,18.50
2021,06,30,03,11,18.50
2021,06,30,03,12,18.50
2021,06,30,03,13,18.50
2021,06,30,03,14,18.40
2021,06,30,03,15,18.40
2021,06,30,03,16,18.40
2021,06,30,03,17,18.30
2021,06,30,03,18,18.30
2021,06,30,03,19,18.30
2021,06,30,03,20,18.30
2021,06,30,03,21,18.30
2021,06,30,03,22,18.30
2021,06,30,03,23,18.40
2021,06,30,03,24,18.40
2021,06,30,03,25,18.40
2021,06,30,03,26,18.40
2021,06,30,03,27,18.40
2021,06,30,03,28,18.40
2021,06,30,03,29,18.40
2021,06,30,03,30,18.40
2021,06,30,03,31,18.40
2021,06,30,03,32,18.40
2021,06,30,03,33,18.40
2021,06,30,03,34,18.40
2021,06,30,03,35,18.40
2021,06,30,03,36,18.40
2021,06,30,03,37,18.40
2021,06,30,03,38,18.40
2021,06,30,03,39,18.30
2021,06,30,03,40,18.30
2021,06,30,03,41,18.30
2021,06,30,03,42,18.30
2021,06,30,03,43,18.30
2021,06,30,03,44,18.30
2021,06,30,03,45,18.30
2021,06,30,03,46,18.20
2021,06,30,03,47,18.20
2021,06,30,03,48,18.20
2021,06,30,03,49,18.10
2021,06,30,03,50,18.10
2021,06,30,03,51,18.10
2021,06,30,03,52,18.00
2021,06,30,03,53,18.00
2021,06,30,03,54,17.90
2021,06,30,03,55,17.80
2021,06,30,03,56,17.80
2021,06,30,03,57,17.70
2021,06,30,03,58,17.70
2021,06,30,03,59,17.60
2021,06,30,04,00,17.60
2021,06,30,04,01,17.60
2021,06,30,04,02,17.60
2021,06,30,04,03,17.50
2021,06,30,04,04,17.50
2021,06,30,04,05,17.50
2021,06,30,04,06,17.50
2021,06,30,04,07,17.50
2021,06,30,04,08,17.50
2021,06,30,04,09,17.40
2021,06,30,04,10,17.50
2021,06,30,04,11,17.50
2021,06,30,04,12,17.50
2021,06,30,04,13,17.40
2021,06,30,04,14,17.40
2021,06,30,04,15,17.40
2021,06,30,04,16,17.40
2021,06,30,04,17,17.40
2021,06,30,04,18,17.40
2021,06,30,04,19,17.40
2021,06,30,04,20,17.40
2021,06,30,04,21,17.40
2021,06,30,04,22,17.40
2021,06,30,04,23,17.40
2021,06,30,04,24,17.40
2021,06,30,04,25,17.40
2021,06,30,04,26,17.40
2021,06,30,04,27,17.40
2021,06,30,04,28,17.40
2021,06,30,04,29,17.40
2021,06,30,04,30,17.40
2021,06,30,04,31,17.30
2021,06,30,04,32,17.30
2021,06,30,04,33,17.30
2021,06,30,04,34,17.30
2021,06,30,04,35,17.30
2021,06,30,04,36,17.30
2021,06,30,04,37,17.30
2021,06,30,04,38,17.30
2021,06,30,04,39,17.30
2021,06,30,04,40,17.20
2021,06,30,04,41,17.20
2021,06,30,04,42,17.20
2021,06,30,04,43,17.20
2021,06,30,04,44,17.20
2021,06,30,04,45,17.20
2021,06,30,04,46,17.20
2021,06,30,04,47,17.20
2021,06,30,04,48,17.20
2021,06,30,04,49,17.20
2021,06,30,04,50,17.20
2021,06,30,04,51,17.20
2021,06,30,04,52,17.20
2021,06,30,04,53,17.20
2021,06,30,04,54,17.20
2021,06,30,04,55,17.20
2021,06,30,04,56,17.20
2021,06,30,04,57,17.20
2021,06,30,04,58,17.20
2021,06,30,04,59,17.20
2021,06,30,05,00,17.20
2021,06,30,05,01,17.20
2021,06,30,05,02,17.10
2021,06,30,05,03,17.10
2021,06,30,05,04,17.10
2021,06,30,05,05,17.10
2021,06,30,05,06,17.10
2021,06,30,05,07,17.10
2021,06,30,05,08,17.00
2021,06,30,05,09,17.00
2021,06,30,05,10,17.00
2021,06,30,05,11,16.90
2021,06,30,05,12,16.90
2021,06,30,05,13,16.90
2021,06,30,05,14,16.90
2021,06,30,05,15,16.80
2021,06,30,05,16,16.80
2021,06,30,05,17,16.80
2021,06,30,05,18,16.80
2021,06,30,05,19,16.80
2021,06,30,05,20,16.80
2021,06,30,05,21,16.80
2021,06,30,05,22,16.80
2021,06,30,05,23,16.80
2021,06,30,05,24,16.80
2021,06,30,05,25,16.80
2021,06,30,05,26,16.70
2021,06,30,05,27,16.70
2021,06,30,05,28,16.70
2021,06,30,05,29,16.70
2021,06,30,05,30,16.70
2021,06,30,05,31,16.70
2021,06,30,05,32,16.70
2021,06,30,05,33,16.70
2021,06,30,05,34,16.70
2021,06,30,05,35,16.70
2021,06,30,05,36,16.70
2021,06,30,05,37,16.70
2021,06,30,05,38,16.70
2021,06,30,05,39,16.70
2021,06,30,05,40,16.70
2021,06,30,05,41,16.70
2021,06,30,05,42,16.70
2021,06,30,05,43,16.70
2021,06,30,05,44,16.70
2021,06,30,05,45,16.70
2021,06,30,05,46,16.70
2021,06,30,05,47,16.70
2021,06,30,05,48,16.70
2021,06,30,05,49,16.70
2021,06,30,05,50,16.70
2021,06,30,05,51,16.70
2021,06,30,05,52,16.70
2021,06,30,05,53,16.70
2021,06,30,05,54,16.70
2021,06,30,05,55,16.70
2021,06,30,05,56,16.70
2021,06,30,05,57,16.70
2021,06,30,05,58,16.80
2021,06,30,05,59,16.80
2021,06,30,06,00,16.80
2021,06,30,06,01,16.80
2021,06,30,06,02,16.80
2021,06,30,06,03,16.80
2021,06,30,06,04,16.80
2021,06,30,06,05,16.80
2021,06,30,06,06,16.80
2021,06,30,06,07,16.80
2021,06,30,06,08,16.90
2021,06,30,06,09,16.90
2021,06,30,06,10,16.90
2021,06,30,06,11,16.90
2021,06,30,06,12,16.90
2021,06,30,06,13,16.90
2021,06,30,06,14,16.90
2021,06,30,06,15,16.90
2021,06,30,06,16,17.00
2021,06,30,06,17,17.00
2021,06,30,06,18,17.00
2021,06,30,06,19,17.00
2021,06,30,06,20,17.00
2021,06,30,06,21,17.10
2021,06,30,06,22,17.10
2021,06,30,06,23,17.10
2021,06,30,06,24,17.10
2021,06,30,06,25,17.10
2021,06,30,06,26,17.10
2021,06,30,06,27,17.10
2021,06,30,06,28,17.10
2021,06,30,06,29,17.10
2021,06,30,06,30,17.10
2021,06,30,06,31,17.10
2021,06,30,06,32,17.20
2021,06,30,06,33,17.20
2021,06,30,06,34,17.20
2021,06,30,06,35,17.20
2021,06,30,06,36,17.20
2021,06,30,06,37,17.20
2021,06,30,06,38,17.20
2021,06,30,06,39,17.30
2021,06,30,06,40,17.30
2021,06,30,06,41,17.30
2021,06,30,06,42,17.30
2021,06,30,06,43,17.30
2021,06,30,06,44,17.40
2021,06,30,06,45,17.40
2021,06,30,06,46,17.40
2021,06,30,06,47,17.40
2021,06,30,06,48,17.40
2021,06,30,06,49,17.40
2021,06,30,06,50,17.40
2021,06,30,06,51,17.50
2021,06,30,06,52,17.50
2021,06,30,06,53,17.50
2021,06,30,06,54,17.50
2021,06,30,06,55,17.60
2021,06,30,06,56,17.60
2021,06,30,06,57,17.60
2021,06,30,06,58,17.60
2021,06,30,06,59,17.60
2021,06,30,07,00,17.60
2021,06,30,07,01,17.60
2021,06,30,07,02,17.70
2021,06,30,07,03,17.70
2021,06,30,07,04,17.70
2021,06,30,07,05,17.70
2021,06,30,07,06,17.80
2021,06,30,07,07,17.80
2021,06,30,07,08,17.80
2021,06,30,07,09,17.80
2021,06,30,07,10,17.90
2021,06,30,07,11,17.90
2021,06,30,07,12,17.90
2021,06,30,07,13,17.90
2021,06,30,07,14,18.00
2021,06,30,07,15,18.00
2021,06,30,07,16,18.00
2021,06,30,07,17,18.00
2021,06,30,07,18,18.10
2021,06,30,07,19,18.10
2021,06,30,07,20,18.10
2021,06,30,07,21,18.20
2021,06,30,07,22,18.20
2021,06,30,07,23,18.20
2021,06,30,07,24,18.20
2021,06,30,07,25,18.30
2021,06,30,07,26,18.20
2021,06,30,07,27,18.20
2021,06,30,07,28,18.30
2021,06,30,07,29,18.30
2021,06,30,07,30,18.30
2021,06,30,07,31,18.30
2021,06,30,07,32,18.30
2021,06,30,07,33,18.30
2021,06,30,07,34,18.30
2021,06,30,07,35,18.40
2021,06,30,07,36,18.40
2021,06,30,07,37,18.40
2021,06,30,07,38,18.50
2021,06,30,07,39,18.50
2021,06,30,07,40,18.50
2021,06,30,07,41,18.60
2021,06,30,07,42,18.60
2021,06,30,07,43,18.60
2021,06,30,07,44,18.60
2021,06,30,07,45,18.60
2021,06,30,07,46,18.70
2021,06,30,07,47,18.70
2021,06,30,07,48,18.70
2021,06,30,07,49,18.80
2021,06,30,07,50,18.80
2021,06,30,07,51,18.90
2021,06,30,07,52,19.00
2021,06,30,07,53,19.00
2021,06,30,07,54,19.00
2021,06,30,07,55,19.10
2021,06,30,07,56,19.10
2021,06,30,07,57,19.10
2021,06,30,07,58,19.10
2021,06,30,07,59,19.20
2021,06,30,08,00,19.20
2021,06,30,08,01,19.20
2021,06,30,08,02,19.20
2021,06,30,08,03,19.30
2021,06,30,08,04,19.30
2021,06,30,08,05,19.40
2021,06,30,08,06,19.40
2021,06,30,08,07,19.40
2021,06,30,08,08,19.40
2021,06,30,08,09,19.40
2021,06,30,08,10,19.50
2021,06,30,08,11,19.60
2021,06,30,08,12,19.60
2021,06,30,08,13,19.60
2021,06,30,08,14,19.70
2021,06,30,08,15,19.70
2021,06,30,08,16,19.70
2021,06,30,08,17,19.70
2021,06,30,08,18,19.70
2021,06,30,08,19,19.80
2021,06,30,08,20,19.80
2021,06,30,08,21,19.90
2021,06,30,08,22,19.90
2021,06,30,08,23,20.00
2021,06,30,08,24,19.90
2021,06,30,08,25,19.90
2021,06,30,08,26,19.90
2021,06,30,08,27,19.90
2021,06,30,08,28,19.90
2021,06,30,08,29,19.90
2021,06,30,08,30,19.90
2021,06,30,08,31,20.00
2021,06,30,08,32,20.00
2021,06,30,08,33,20.10
2021,06,30,08,34,20.20
2021,06,30,08,35,20.30
2021,06,30,08,36,20.30
2021,06,30,08,37,20.30
2021,06,30,08,38,20.30
2021,06,30,08,39,20.40
2021,06,30,08,40,20.60
2021,06,30,08,41,20.70
2021,06,30,08,42,20.80
2021,06,30,08,43,20.90
2021,06,30,08,44,20.90
2021,06,30,08,45,20.90
2021,06,30,08,46,20.90
2021,06,30,08,47,20.90
2021,06,30,08,48,20.90
2021,06,30,08,49,20.90
2021,06,30,08,50,20.80
2021,06,30,08,51,20.90
2021,06,30,08,52,20.90
2021,06,30,08,53,20.90
2021,06,30,08,54,20.90
2021,06,30,08,55,20.90
2021,06,30,08,56,21.00
2021,06,30,08,57,21.10
2021,06,30,08,58,21.10
2021,06,30,08,59,21.20
2021,06,30,09,00,21.20
2021,06,30,09,01,21.10
2021,06,30,09,02,21.20
2021,06,30,09,03,21.20
2021,06,30,09,04,21.20
2021,06,30,09,05,21.20
2021,06,30,09,06,21.20
2021,06,30,09,07,21.20
2021,06,30,09,08,21.20
2021,06,30,09,09,21.20
2021,06,30,09,10,21.20
2021,06,30,09,11,21.30
2021,06,30,09,12,21.40
2021,06,30,09,13,21.40
2021,06,30,09,14,21.40
2021,06,30,09,15,21.40
2021,06,30,09,16,21.40
2021,06,30,09,17,21.40
2021,06,30,09,18,21.40
2021,06,30,09,19,21.40
2021,06,30,09,20,21.40
2021,06,30,09,21,21.30
2021,06,30,09,22,21.30
2021,06,30,09,23,21.30
2021,06,30,09,24,21.20
2021,06,30,09,25,21.20
2021,06,30,09,26,21.30
2021,06,30,09,27,21.40
2021,06,30,09,28,21.40
2021,06,30,09,29,21.40
2021,06,30,09,30,21.40
2021,06,30,09,31,21.40
2021,06,30,09,32,21.40
2021,06,30,09,33,21.50
2021,06,30,09,34,21.60
2021,06,30,09,35,21.60
2021,06,30,09,36,21.60
2021,06,30,09,37,21.70
2021,06,30,09,38,21.70
2021,06,30,09,39,21.70
2021,06,30,09,40,21.70
2021,06,30,09,41,21.70
2021,06,30,09,42,21.70
2021,06,30,09,43,21.70
2021,06,30,09,44,21.70
2021,06,30,09,45,21.70
2021,06,30,09,46,21.80
2021,06,30,09,47,21.80
2021,06,30,09,48,21.80
2021,06,30,09,49,21.80
2021,06,30,09,50,21.80
2021,06,30,09,51,21.80
2021,06,30,09,52,21.80
2021,06,30,09,53,21.90
2021,06,30,09,54,21.90
2021,06,30,09,55,22.00
2021,06,30,09,56,22.10
2021,06,30,09,57,22.20
2021,06,30,09,58,22.10
2021,06,30,09,59,21.90
2021,06,30,10,00,21.80
2021,06,30,10,01,21.70
2021,06,30,10,02,21.80
2021,06,30,10,03,21.90
2021,06,30,10,04,21.90
2021,06,30,10,05,22.00
2021,06,30,10,06,22.00
2021,06,30,10,07,21.90
2021,06,30,10,08,22.00
2021,06,30,10,09,22.10
2021,06,30,10,10,22.20
2021,06,30,10,11,22.20
2021,06,30,10,12,22.30
2021,06,30,10,13,22.30
2021,06,30,10,14,22.20
2021,06,30,10,15,22.10
2021,06,30,10,16,22.20
2021,06,30,10,17,22.30
2021,06,30,10,18,22.40
2021,06,30,10,19,22.30
2021,06,30,10,20,22.20
2021,06,30,10,21,22.10
2021,06,30,10,22,22.10
2021,06,30,10,23,22.00
2021,06,30,10,24,22.10
2021,06,30,10,25,22.10
2021,06,30,10,26,22.10
2021,06,30,10,27,22.10
2021,06,30,10,28,22.10
2021,06,30,10,29,22.10
2021,06,30,10,30,22.20
2021,06,30,10,31,22.20
2021,06,30,10,32,22.20
2021,06,30,10,33,22.20
2021,06,30,10,34,22.30
2021,06,30,10,35,22.30
2021,06,30,10,36,22.40
2021,06,30,10,37,22.50
2021,06,30,10,38,22.60
2021,06,30,10,39,22.70
2021,06,30,10,40,22.60
2021,06,30,10,41,22.50
2021,06,30,10,42,22.50
2021,06,30,10,43,22.60
2021,06,30,10,44,22.80
2021,06,30,10,45,22.70
2021,06,30,10,46,22.80
2021,06,30,10,47,22.80
2021,06,30,10,48,22.70
2021,06,30,10,49,22.60
2021,06,30,10,50,22.50
2021,06,30,10,51,22.40
2021,06,30,10,52,22.40
2021,06,30,10,53,22.50
2021,06,30,10,54,22.60
2021,06,30,10,55,22.70
2021,06,30,10,56,22.70
2021,06,30,10,57,22.80
2021,06,30,10,58,22.80
2021,06,30,10,59,22.80
2021,06,30,11,00,22.70
2021,06,30,11,01,22.60
2021,06,30,11,02,22.70
2021,06,30,11,03,22.70
2021,06,30,11,04,22.70
2021,06,30,11,05,22.70
2021,06,30,11,06,22.70
2021,06,30,11,07,22.80
2021,06,30,11,08,22.80
2021,06,30,11,09,22.80
2021,06,30,11,10,22.80
2021,06,30,11,11,22.80
2021,06,30,11,12,22.90
2021,06,30,11,13,23.00
2021,06,30,11,14,23.00
2021,06,30,11,15,23.00
2021,06,30,11,16,23.00
2021,06,30,11,17,23.10
2021,06,30,11,18,23.10
2021,06,30,11,19,23.30
2021,06,30,11,20,23.40
2021,06,30,11,21,23.30
2021,06,30,11,22,23.30
2021,06,30,11,23,23.40
2021,06,30,11,24,23.50
2021,06,30,11,25,23.70
2021,06,30,11,26,23.80
2021,06,30,11,27,23.80
2021,06,30,11,28,23.80
2021,06,30,11,29,23.60
2021,06,30,11,30,23.60
2021,06,30,11,31,23.70
2021,06,30,11,32,23.70
2021,06,30,11,33,23.80
2021,06,30,11,34,23.80
2021,06,30,11,35,23.90
2021,06,30,11,36,23.90
2021,06,30,11,37,23.90
2021,06,30,11,38,23.90
2021,06,30,11,39,23.90
2021,06,30,11,40,23.80
2021,06,30,11,41,23.70
2021,06,30,11,42,23.60
2021,06,30,11,43,23.50
2021,06,30,11,44,23.40
2021,06,30,11,45,23.40
2021,06,30,11,46,23.40
2021,06,30,11,47,23.30
2021,06,30,11,48,23.30
2021,06,30,11,49,23.40
2021,06,30,11,50,23.40
2021,06,30,11,51,23.50
2021,06,30,11,52,23.60
2021,06,30,11,53,23.80
2021,06,30,11,54,23.80
2021,06,30,11,55,23.90
2021,06,30,11,56,23.80
2021,06,30,11,57,23.80
2021,06,30,11,58,23.70
2021,06,30,11,59,23.60
2021,06,30,12,00,23.60
2021,06,30,12,01,23.60
2021,06,30,12,02,23.70
2021,06,30,12,03,23.80
2021,06,30,12,04,23.80
2021,06,30,12,05,23.90
2021,06,30,12,06,24.00
2021,06,30,12,07,24.00
2021,06,30,12,08,23.90
2021,06,30,12,09,24.00
2021,06,30,12,10,24.10
2021,06,30,12,11,24.20
2021,06,30,12,12,24.30
2021,06,30,12,13,24.20
2021,06,30,12,14,24.20
2021,06,30,12,15,24.10
2021,06,30,12,16,24.00
2021,06,30,12,17,23.90
2021,06,30,12,18,23.80
2021,06,30,12,19,23.70
2021,06,30,12,20,23.70
2021,06,30,12,21,23.70
2021,06,30,12,22,23.80
2021,06,30,12,23,23.80
2021,06,30,12,24,23.80
2021,06,30,12,25,23.90
2021,06,30,12,26,23.90
2021,06,30,12,27,23.90
2021,06,30,12,28,23.80
2021,06,30,12,29,23.80
2021,06,30,12,30,23.90
2021,06,30,12,31,23.80
2021,06,30,12,32,23.70
2021,06,30,12,33,23.70
2021,06,30,12,34,23.70
2021,06,30,12,35,23.70
2021,06,30,12,36,23.60
2021,06,30,12,37,23.60
2021,06,30,12,38,23.60
2021,06,30,12,39,23.70
2021,06,30,12,40,23.70
2021,06,30,12,41,23.70
2021,06,30,12,42,23.80
2021,06,30,12,43,23.90
2021,06,30,12,44,23.90
2021,06,30,12,45,23.80
2021,06,30,12,46,23.70
2021,06,30,12,47,23.50
2021,06,30,12,48,23.30
2021,06,30,12,49,23.30
2021,06,30,12,50,23.20
2021,06,30,12,51,23.20
2021,06,30,12,52,23.20
2021,06,30,12,53,23.30
2021,06,30,12,54,23.40
2021,06,30,12,55,23.60
2021,06,30,12,56,23.70
2021,06,30,12,57,23.90
2021,06,30,12,58,23.90
2021,06,30,12,59,24.00
2021,06,30,13,00,24.00
2021,06,30,13,01,24.00
2021,06,30,13,02,24.00
2021,06,30,13,03,24.10
2021,06,30,13,04,24.20
2021,06,30,13,05,24.20
2021,06,30,13,06,24.10
2021,06,30,13,07,23.90
2021,06,30,13,08,23.70
2021,06,30,13,09,23.70
2021,06,30,13,10,23.80
2021,06,30,13,11,23.80
2021,06,30,13,12,23.80
2021,06,30,13,13,23.80
2021,06,30,13,14,23.60
2021,06,30,13,15,23.40
2021,06,30,13,16,23.40
2021,06,30,13,17,23.40
2021,06,30,13,18,23.40
2021,06,30,13,19,23.50
2021,06,30,13,20,23.60
2021,06,30,13,21,23.50
2021,06,30,13,22,23.50
2021,06,30,13,23,23.60
2021,06,30,13,24,23.60
2021,06,30,13,25,23.70
2021,06,30,13,26,23.70
2021,06,30,13,27,23.70
2021,06,30,13,28,23.80
2021,06,30,13,29,23.80
2021,06,30,13,30,23.70
2021,06,30,13,31,23.80
2021,06,30,13,32,23.70
2021,06,30,13,33,23.60
2021,06,30,13,34,23.60
2021,06,30,13,35,23.50
2021,06,30,13,36,23.40
2021,06,30,13,37,23.30
2021,06,30,13,38,23.20
2021,06,30,13,39,23.20
2021,06,30,13,40,23.20
2021,06,30,13,41,23.30
2021,06,30,13,42,23.40
2021,06,30,13,43,23.50
2021,06,30,13,44,23.60
2021,06,30,13,45,23.70
2021,06,30,13,46,23.70
2021,06,30,13,47,23.70
2021,06,30,13,48,23.70
2021,06,30,13,49,23.70
2021,06,30,13,50,23.60
2021,06,30,13,51,23.60
2021,06,30,13,52,23.60
2021,06,30,13,53,23.70
2021,06,30,13,54,23.80
2021,06,30,13,55,23.80
2021,06,30,13,56,23.90
2021,06,30,13,57,24.10
2021,06,30,13,58,24.20
2021,06,30,13,59,24.20
2021,06,30,14,00,24.30
2021,06,30,14,01,24.40
2021,06,30,14,02,24.30
2021,06,30,14,03,24.30
2021,06,30,14,04,24.40
2021,06,30,14,05,24.50
2021,06,30,14,06,24.50
2021,06,30,14,07,24.50
2021,06,30,14,08,24.50
2021,06,30,14,09,24.40
2021,06,30,14,10,24.30
2021,06,30,14,11,24.30
2021,06,30,14,12,24.30
2021,06,30,14,13,24.20
2021,06,30,14,14,24.20
2021,06,30,14,15,24.00
2021,06,30,14,16,23.90
2021,06,30,14,17,23.80
2021,06,30,14,18,23.80
2021,06,30,14,19,23.80
2021,06,30,14,20,23.80
2021,06,30,14,21,23.90
2021,06,30,14,22,24.00
2021,06,30,14,23,24.10
2021,06,30,14,24,24.10
2021,06,30,14,25,24.20
2021,06,30,14,26,24.30
2021,06,30,14,27,24.30
2021,06,30,14,28,24.40
2021,06,30,14,29,24.30
2021,06,30,14,30,24.20
2021,06,30,14,31,24.10
2021,06,30,14,32,24.10
2021,06,30,14,33,24.20
2021,06,30,14,34,24.20
2021,06,30,14,35,24.30
2021,06,30,14,36,24.20
2021,06,30,14,37,24.10
2021,06,30,14,38,24.10
2021,06,30,14,39,24.20
2021,06,30,14,40,24.30
2021,06,30,14,41,24.30
2021,06,30,14,42,24.30
2021,06,30,14,43,24.30
2021,06,30,14,44,24.40
2021,06,30,14,45,24.30
2021,06,30,14,46,24.20
2021,06,30,14,47,24.10
2021,06,30,14,48,24.10
2021,06,30,14,49,24.00
2021,06,30,14,50,24.00
2021,06,30,14,51,24.00
2021,06,30,14,52,24.00
2021,06,30,14,53,23.90
2021,06,30,14,54,23.90
2021,06,30,14,55,24.00
2021,06,30,14,56,24.00
2021,06,30,14,57,24.10
2021,06,30,14,58,24.20
2021,06,30,14,59,24.20
2021,06,30,15,00,24.20
2021,06,30,15,01,24.10
2021,06,30,15,02,24.00
2021,06,30,15,03,23.90
2021,06,30,15,04,23.80
2021,06,30,15,05,23.90
2021,06,30,15,06,23.90
2021,06,30,15,07,23.80
2021,06,30,15,08,23.80
2021,06,30,15,09,23.70
2021,06,30,15,10,23.60
2021,06,30,15,11,23.70
2021,06,30,15,12,23.80
2021,06,30,15,13,23.80
2021,06,30,15,14,23.80
2021,06,30,15,15,23.70
2021,06,30,15,16,23.80
2021,06,30,15,17,23.90
2021,06,30,15,18,24.10
2021,06,30,15,19,24.10
2021,06,30,15,20,24.20
2021,06,30,15,21,24.20
2021,06,30,15,22,24.00
2021,06,30,15,23,23.90
2021,06,30,15,24,23.90
2021,06,30,15,25,23.90
2021,06,30,15,26,24.00
2021,06,30,15,27,24.10
2021,06,30,15,28,24.10
2021,06,30,15,29,24.30
2021,06,30,15,30,24.40
2021,06,30,15,31,24.50
2021,06,30,15,32,24.60
2021,06,30,15,33,24.60
2021,06,30,15,34,24.60
2021,06,30,15,35,24.60
2021,06,30,15,36,24.60
2021,06,30,15,37,24.50
2021,06,30,15,38,24.40
2021,06,30,15,39,24.30
2021,06,30,15,40,24.10
2021,06,30,15,41,24.10
2021,06,30,15,42,24.10
2021,06,30,15,43,24.10
2021,06,30,15,44,24.20
2021,06,30,15,45,24.20
2021,06,30,15,46,24.20
2021,06,30,15,47,24.30
2021,06,30,15,48,24.30
2021,06,30,15,49,24.40
2021,06,30,15,50,24.30
2021,06,30,15,51,24.10
2021,06,30,15,52,24.00
2021,06,30,15,53,24.10
2021,06,30,15,54,24.10
2021,06,30,15,55,24.00
2021,06,30,15,56,24.00
2021,06,30,15,57,24.10
2021,06,30,15,58,24.10
2021,06,30,15,59,24.20
2021,06,30,16,00,24.10
2021,06,30,16,01,24.10
2021,06,30,16,02,24.20
2021,06,30,16,03,24.20
2021,06,30,16,04,24.20
2021,06,30,16,05,24.20
2021,06,30,16,06,24.30
2021,06,30,16,07,24.30
2021,06,30,16,08,24.30
2021,06,30,16,09,24.20
2021,06,30,16,10,24.20
2021,06,30,16,11,24.30
2021,06,30,16,12,24.50
2021,06,30,16,13,24.60
2021,06,30,16,14,24.40
2021,06,30,16,15,24.20
2021,06,30,16,16,24.00
2021,06,30,16,17,23.90
2021,06,30,16,18,23.80
2021,06,30,16,19,23.80
2021,06,30,16,20,23.90
2021,06,30,16,21,23.90
2021,06,30,16,22,23.80
2021,06,30,16,23,23.90
2021,06,30,16,24,23.90
2021,06,30,16,25,23.80
2021,06,30,16,26,23.80
2021,06,30,16,27,23.80
2021,06,30,16,28,23.80
2021,06,30,16,29,23.80
2021,06,30,16,30,23.80
2021,06,30,16,31,23.80
2021,06,30,16,32,23.70
2021,06,30,16,33,23.70
2021,06,30,16,34,23.70
2021,06,30,16,35,23.70
2021,06,30,16,36,23.80
2021,06,30,16,37,23.80
2021,06,30,16,38,23.80
2021,06,30,16,39,23.70
2021,06,30,16,40,23.60
2021,06,30,16,41,23.60
2021,06,30,16,42,23.60
2021,06,30,16,43,23.60
2021,06,30,16,44,23.60
2021,06,30,16,45,23.70
2021,06,30,16,46,23.70
2021,06,30,16,47,23.70
2021,06,30,16,48,23.70
2021,06,30,16,49,23.70
2021,06,30,16,50,23.80
2021,06,30,16,51,23.70
2021,06,30,16,52,23.70
2021,06,30,16,53,23.80
2021,06,30,16,54,23.90
2021,06,30,16,55,23.90
2021,06,30,16,56,23.90
2021,06,30,16,57,23.90
2021,06,30,16,58,23.90
2021,06,30,16,59,23.90
2021,06,30,17,00,23.80
2021,06,30,17,01,23.70
2021,06,30,17,02,23.60
2021,06,30,17,03,23.60
2021,06,30,17,04,23.60
2021,06,30,17,05,23.60
2021,06,30,17,06,23.60
2021,06,30,17,07,23.70
2021,06,30,17,08,23.70
2021,06,30,17,09,23.80
2021,06,30,17,10,23.80
2021,06,30,17,11,23.80
2021,06,30,17,12,23.80
2021,06,30,17,13,23.90
2021,06,30,17,14,23.90
2021,06,30,17,15,23.90
2021,06,30,17,16,23.80
2021,06,30,17,17,23.70
2021,06,30,17,18,23.60
2021,06,30,17,19,23.50